Regional Weather Roundup
Issued by NWS Sterling, VA

Home | Current Version | Previous Version | Text Only | Print | Product List | Glossary On
Versions: 1 2 3 4 5 6 7 8 9 10 11 12 13 14 15 16 17 18 19 20 21 22 23 24 25 26 27 28 29 30 31 32 33 34 35 36 37 38 39 40 41 42 43 44 45 46 47 48 49 50
000
ASUS41 KLWX 252011
RWRLWX

REGIONAL WEATHER ROUNDUP
NATIONAL WEATHER SERVICE BALTIMORE MD/WASHINGTON DC
400 PM EDT THU MAY 25 2017

Note: "FAIR" indicates few or no clouds below 12,000 feet
with no significant weather and/or obstructions to visibility.
 TC=TEMPERATURE CELSIUS

 * =Non NWS site. Station does not report precipitation (e.g. rain,
    snow, etc.), thunder, or fog.

DCZ001-MDZ009-015-VAZ040>042-051-053>054-252100-
WASHINGTON METRO

CITY           SKY/WX    TMP DP  RH WIND       PRES   REMARKS
WASHINGTON NAT MOSUNNY   75  61  61 S8        29.44F THUNDER
DULLES         CLOUDY    71  57  61 VRB7      29.45F
ANDREWS AFB    PTSUNNY   72  59  62 SE8       29.43F
FT BELVOIR     SUNNY     74  58  57 S3        29.44F
QUANTICO       PTSUNNY   72  61  68 SE3       29.43F THUNDER
COLLEGE PARK*  MOSUNNY   73  59  61 CALM      29.44F
LEESBURG*      CLOUDY    72  61  68 SE3       29.45F THUNDER
MANASSAS*      MOSUNNY   72  60  66 S5        29.44F
GAITHERSBURG*  MOSUNNY   73  58  59 CALM      29.46F

$$

MDZ006>007-011-014-252100-
BALTIMORE METRO

CITY           SKY/WX    TMP DP  RH WIND       PRES   REMARKS
BWI AIRPORT    PTSUNNY   71  60  68 CALM      29.45F
MD SCIENCE CTR   N/A     74  60  61 MISG      29.47F
MARTIN STATE   PTSUNNY   73  64  73 SW5       29.48F
ANNAPOLIS      PTSUNNY   72  63  73 E9        29.46F
FORT MEADE*    PTSUNNY   70  59  68 CALM      29.47F

$$

MDZ012-015-019>023-252100-
MARYLAND EASTERN SHORE

CITY           SKY/WX    TMP DP  RH WIND       PRES   REMARKS
OCEAN CITY     CLOUDY    66  63  90 S8        29.48F
SALISBURY      CLOUDY    77  62  59 SW8       29.45F
BAY BRIDGE AP* SUNNY     73  63  68 NW5       29.47F
CAMBRIDGE*     MOSUNNY   77  59  53 VRB6      29.46F
EASTON*        MOSUNNY   77  63  61 SW6       29.50F

$$

MDZ017>025-252100-
SOUTHERN MARYLAND

CITY           SKY/WX    TMP DP  RH WIND       PRES   REMARKS
PATUXENT RIVER MOSUNNY   75  67  76 SE12      29.44F
ST INIGOES     SUNNY     78  61  55 VRB6      29.43F
LEONARDTOWN*   PTSUNNY   73  59  60 S5        29.46F

$$

MDZ003>005-252100-
NORTH CENTRAL MARYLAND

CITY           SKY/WX    TMP DP  RH WIND       PRES   REMARKS
FREDERICK*     PTSUNNY   72  63  73 VRB3      29.49F
HAGERSTOWN APT CLOUDY    67  57  70 CALM      29.47F
WESTMINSTER*   CLOUDY    66  61  82 CALM      29.48F

$$

MDZ501>502-252100-
WESTERN MARYLAND

CITY           SKY/WX    TMP DP  RH WIND       PRES   REMARKS
OAKLAND*       MOSUNNY   59  46  63 W10G18    29.52F
CUMBERLAND*    PTSUNNY   68  57  68 N3        29.50F

$$

VAZ025>031-252100-
SHENANDOAH VALLEY

CITY           SKY/WX    TMP DP  RH WIND       PRES   REMARKS
WINCHESTER*    TSTM      59  55  88 NW15      29.46S
FRONT ROYAL*   PTSUNNY   63  57  82 CALM      29.44F
LURAY*         CLOUDY    72  61  68 E8        29.43F
NEW MARKET*    CLOUDY    72  55  54 S7        29.41F
STAUNTON*      MOSUNNY   71  52  51 SW20      29.47S
WAYNESBORO*    PTSUNNY   71  52  51 SW14G21   29.47F

$$

WVZ021-048>050-054>055-252100-
EASTERN WEST VIRGINIA PANHANDLE

CITY           SKY/WX    TMP DP  RH WIND       PRES   REMARKS
MARTINSBURG    CLOUDY    67  56  67 VRB6      29.46F
PETERSBURG*    CLOUDY    65  61  87 CALM      29.46F

$$

VAZ036>039-050-252100-
CENTRAL FOOTHILLS

CITY           SKY/WX    TMP DP  RH WIND       PRES   REMARKS
CHARLOTTESVILL LGT RAIN  67  63  87 CALM      29.46R
CULPEPER*      TSTM      61  55  79 NW8G22    29.45F
ORANGE*        MOSUNNY   63  57  82 CALM      29.45F
GORDONSVILLE*  CLOUDY    72  61  69 SW3       29.45S
WARRENTON*     CLOUDY    71  59  66 SW8       29.46R

$$

VAZ055>057-252100-
NORTH AND CENTRAL PIEDMONT

CITY           SKY/WX    TMP DP  RH WIND       PRES   REMARKS
FREDERICKSBRG* PTSUNNY   72  63  73 CALM      29.44S
STAFFORD*      MOSUNNY   70  63  77 CALM      29.48F

$$

NCZ024-NYZ072-PAZ021-071-VAZ022-071-252100-
OTHER REGIONAL OBSERVATIONS

CITY           SKY/WX    TMP DP  RH WIND       PRES   REMARKS
NEW YORK CITY  CLOUDY    57  57 100 E9G16     29.58F FOG
PHILADELPHIA   CLOUDY    66  62  87 NE8       29.49F
PITTSBURGH     LGT RAIN  60  58  92 SW9G18    29.47R
ROANOKE        CLOUDY    64  50  60 W12       29.57R
RICHMOND       TSTM      62  55  77 W15G33    29.48R
RALEIGH        PTSUNNY   74  56  53 SW13G26   29.56S

$$

ANZ530>537-252100-
MARINE OBSERVATIONS

STATION/POSITION TIME  TEMP    WIND        PRES
                       AIR SEA DIR/SP/G
                 (UTC) (F)     (DEG/KT/KT) (MB)
THOMAS PT LIGHT  2000   70 64  120/  3/  3   N/A
BALT KEY BRIDGE  1942   70     320/  3/  5  997.5F
COVE POINT       1942   70     160/  7/ 11  997.9F
LEWISETTA        1942   75 66  200/  9/ 11  997.0F
SOLOMONS ISLAND  1942   74 67  170/  6/  8   N/A
PINEY POINT      1948          210/ 11/ 12   N/A

$$




USA.gov is the U.S. government's official web portal to all federal, state and local government web resources and services.